sat.trackr.live / text

‹ back to catalog

STARLINK-35658

NORAD 66126 · 2025-237N

PAYLOAD ACTIVE UNKNOWN

§ Identity

Operator
Country
US
Launch date
2025-10-22
Launch site
AFWTR
Launch vehicle
Mass (kg)
RCS (m²)

Purposes: comms

External: N2YO · Heavens-Above · Gunter

§ Orbital elements

Epoch: 2026-09-20T13:28:55.849728Z

Period
93.85 min
Inclination
53.1572°
Eccentricity
0.0000770
Mean motion
15.34414779 rev/d
Perigee alt
462.1 km
Apogee alt
463.2 km
Semi-major
6,840.8 km
B*
8.9128e-4
RAAN
211.1065°
Arg perigee
237.2837°
Mean anomaly
122.8091°
Rev number
5,248

§ Raw data

STARLINK-356581 66126U 25237N   26263.56175752  .00029871  00000+0  89128-3 0  99942 66126  53.1572 211.1065 0000770 237.2837 122.8091 15.34414779 52485

JSON: /api/v1/satellites/66126 · /tle

For live sub-satellite position, see the globe view (requires WebGL).

§ Visibility from observer

Set your observer location to see the next 7 days of passes ≥ 10°. The values pass through the URL so the page stays shareable.

No JS? Fill the form by hand. The geolocation button needs JavaScript.